Simultaneous Nadir Overpasses (SNOs) Predictions

Prediction of SNOs between LANDSAT-8 and NOAA-19 Satellite Orbit:

Table of predicted SNOs for the next 14.0 days since TLE Epoch: 5/3/2014
Index Date (LANDSAT-8) Time (LANDSAT-8) Lat,Lon (LANDSAT-8) SZA (LANDSAT-8 ) Date (NOAA-19) Time (NOAA-19) Lat,Lon (NOAA-19) SZA (NOAA-19 ) Distance(km) Time Diff (sec)
1 05/04/2014 07:59:18 71.93, 59.13 55.86 05/04/2014 07:58:08 71.96, 59.12 55.89 3.24 70
2 05/04/2014 08:48:48 -71.81,-133.44 124.28 05/04/2014 08:49:05 -71.83,-133.37 124.26 3.06 17
3 05/06/2014 12:43:22 72.49, -10.95 55.80 05/06/2014 12:42:14 72.57, -13.06 55.88 71.26 68
4 05/06/2014 13:33:01 -71.89, 155.62 124.82 05/06/2014 13:32:59 -71.86, 155.62 124.85 3.19 2
5 05/06/2014 14:22:42 71.03, -38.14 54.32 05/06/2014 14:23:48 71.06, -35.69 54.35 88.59 66
6 05/08/2014 18:17:15 -71.90, 84.57 125.41 05/08/2014 18:16:53 -71.90, 84.59 125.41 0.62 22
7 05/08/2014 19:06:43 71.75,-108.05 54.43 05/08/2014 19:07:55 71.74,-107.88 54.42 5.85 72
8 05/10/2014 23:01:28 -71.96, 13.60 125.94 05/10/2014 23:00:47 -71.95, 13.55 125.94 1.83 41
9 05/10/2014 23:50:56 71.80,-179.02 53.90 05/10/2014 23:51:50 71.82,-178.97 53.92 2.37 54
10 05/13/2014 03:45:42 -71.95, -57.49 126.50 05/13/2014 03:44:40 -71.96, -57.41 126.49 2.96 62
11 05/13/2014 04:35:09 71.85, 109.98 53.39 05/13/2014 04:35:44 71.85, 110.02 53.40 1.27 35
12 05/15/2014 08:29:51 -72.19,-128.13 126.79 05/15/2014 08:28:39 -72.27,-128.98 126.70 30.32 72
13 05/15/2014 09:19:22 71.88,
